World > North America > United States > Pennsylvania

Fairdale, Pennsylvania Regional Weather

Lat: 39.89N, Lon: 79.97W
Wx Zone: PAZ031Web Search

Helpful Tip: Type the letters wx in the search engine next time you need to find us.

Feedback


°F Click to change Fairdale hourly weather to Imperial units.Click to change Fairdale hourly weather to Metric units. °C
Fairdale Weather Map
UTC Time: 5/18/2021, 01:13
Your Time:

Fairdale, PA Regional Weather

Expires:202105180200;;284445
ASUS41 KCTP 180110
RWRCTP

REGIONAL WEATHER ROUNDUP
NATIONAL WEATHER SERVICE STATE COLLEGE PA
900 PM EDT MON MAY 17 2021

Note: "fair" indicates few or no clouds below 12,000 feet with no 
significant weather and/or obstructions to visibility.

* = STATION THAT DOES NOT REPORT PRECIPITATION /E.G. RAIN...SNOW...ETC/
    THUNDER OR FOG.


PAZ002>004-007>009-013>016-020>023-029>032-180200-
WESTERN PENNSYLVANIA
  
CITY           SKY/WX    TMP DP  RH WIND       PRES   REMARKS
ERIE           FAIR      64  43  46 S3        30.27R                  
MEADVILLE      FAIR      62  43  49 N3        30.28R                  
FRANKLIN       FAIR      63  43  48 W3        30.29R                  
NEW CASTLE     FAIR      58  47  66 CALM      30.27S                  
BEAVER COUNTY  FAIR      64  44  46 CALM      30.27S                  
BUTLER         FAIR      61  45  55 CALM      30.28R                  
PITTSBURGH INT MOCLDY    63  45  51 NW3       30.27R                  
PITTSBURGH     FAIR      67  36  31 CALM      30.26R                  
INDIANA*       CLEAR     61  46  59 CALM      30.31R                  
LATROBE        CLEAR     61  48  63 CALM      30.27R                  
WASHINGTON CO* FAIR      62  47  57 CALM      30.29R                  
$$


SKY/WX - Weather  TMP - Temperature  DP - Dew Point  RH - Relative Humidity
WIND - Wind Direction/Speed PRES - Barometric Pressure VSB - Visibility
WCI - Wind Chill Index E13G22 Wind - East Wind 13 mph/Gusts of 22 mph